Hourly Data Report for May 19, 2006

TORONTO CITY
ONTARIO

43°40'00.000" N
79°24'00.000" W
112.50 m
6158355
71508
XTO

Download Data

Hourly Data (May 2006)
Hourly Data Report for May 19, 2006
TIME
LST
Temp Definition
°C
Dew Point Definition
°C
Rel Hum Definition
%
Precip. Amount Definition
mm

Wind Dir Definition
10's deg

Wind Spd Definition
km/h
Visibility Definition
km
Stn Press Definition
kPa
Hmdx Definition


Wind Chill Definition


Weather Definition


00:00 8.8 7.0 88   LegendMM LegendMM   98.58     LegendNANA
01:00 8.8 7.1 89   LegendMM LegendMM   98.58     LegendNANA
02:00 8.7 6.9 88   LegendMM LegendMM   98.59     LegendNANA
03:00 8.0 6.7 91   LegendMM LegendMM   98.59     LegendNANA
04:00 6.8 6.0 95   LegendMM LegendMM   98.64     LegendNANA
05:00 6.4 5.8 96   LegendMM LegendMM   98.65     LegendNANA
06:00 7.6 7.0 96   LegendMM LegendMM   98.67     LegendNANA
07:00 10.2 7.4 83   LegendMM LegendMM   98.70     LegendNANA
08:00 11.3 7.2 76   LegendMM LegendMM   98.69     LegendNANA
09:00 11.7 7.0 73   LegendMM LegendMM   98.74     LegendNANA
10:00 12.7 7.7 72   LegendMM LegendMM   98.74     LegendNANA
11:00 13.3 7.9 70   LegendMM LegendMM   98.73     LegendNANA
12:00 14.1 8.0 67   LegendMM LegendMM   98.71     LegendNANA
13:00 13.5 7.8 68   LegendMM LegendMM   98.71     LegendNANA
14:00 14.0 7.5 65   LegendMM LegendMM   98.68     LegendNANA
15:00 14.1 7.1 63   LegendMM LegendMM   98.67     LegendNANA
16:00 14.1 8.1 67   LegendMM LegendMM   98.68     LegendNANA
17:00 13.4 9.0 75   LegendMM LegendMM   98.67     LegendNANA
18:00 12.9 9.6 80   LegendMM LegendMM   98.68     LegendNANA
19:00 12.2 10.7 91   LegendMM LegendMM   98.73     LegendNANA
20:00 11.5 10.9 96   LegendMM LegendMM   98.73     LegendNANA
21:00 10.9 10.3 96   LegendMM LegendMM   98.76     LegendNANA
22:00 10.3 9.4 94   LegendMM LegendMM   98.79     LegendNANA
23:00 10.1 9.3 95   LegendMM LegendMM   98.78     LegendNANA

Notes on Data Quality.

Legend

  • E = Estimated
  • M = Missing
  • NA = Not Available*
  • [empty] = Indicates an unobserved value
Date modified: